"read_dt","SO2 (ppb)","flags","PMT voltage (V)","lamp voltage (V)","lamp intensity (Hz)","internal temp (C)","react chamber temp (C)","sample flow (l/min)","pres (mmHg)","SO2 bkg (ppb)","SO2 coefficient"
2016-09-05 00:00:00,2425E-3,5C000400,-0723,0822,12223,031.1,045.6,0.249,760.6,01.16,0.508
2016-09-05 00:01:00,2427E-3,5C000400,-0723,0823,12082,031.2,045.6,0.249,760.6,01.16,0.508
2016-09-05 00:02:00,2419E-3,5C000400,-0723,0822,12324,031.1,045.6,0.249,760.5,01.16,0.508
2016-09-05 00:03:00,2658E-3,5C000400,-0723,0823,12318,031.1,045.6,0.248,760.5,01.16,0.508
2016-09-05 00:04:00,2544E-3,5C000400,-0723,0823,12178,031.2,045.6,0.249,760.5,01.16,0.508
2016-09-05 00:05:00,2492E-3,5C000400,-0723,0823,12216,031.1,045.6,0.249,760.5,01.16,0.508
2016-09-05 00:06:00,2488E-3,5C000400,-0723,0823,12314,031.1,045.6,0.249,760.5,01.16,0.508
2016-09-05 00:07:00,2463E-3,5C000400,-0723,0823,12255,031.2,045.5,0.249,760.5,01.16,0.508
2016-09-05 00:08:00,2436E-3,5C000400,-0723,0823,12164,031.2,045.6,0.248,760.5,01.16,0.508
2016-09-05 00:09:00,2450E-3,5C000400,-0723,0823,12356,031.2,045.6,0.249,760.5,01.16,0.508
2016-09-05 00:10:00,2398E-3,5C000400,-0723,0823,12253,031.2,045.6,0.249,760.5,01.16,0.508
2016-09-05 00:11:00,2468E-3,5C000400,-0723,0823,12105,031.2,045.6,0.249,760.5,01.16,0.508
2016-09-05 00:12:00,2539E-3,5C000400,-0723,0823,12307,031.2,045.6,0.249,760.5,01.16,0.508
2016-09-05 00:13:00,2645E-3,5C000400,-0723,0823,12290,031.1,045.6,0.249,760.5,01.16,0.508
2016-09-05 00:14:00,2503E-3,5C000400,-0723,0822,12311,031.1,045.5,0.249,760.5,01.16,0.508
2016-09-05 00:15:00,2510E-3,5C000400,-0723,0823,12221,031.1,045.6,0.249,760.5,01.16,0.508
2016-09-05 00:16:00,2615E-3,5C000400,-0723,0823,12270,031.1,045.5,0.249,760.5,01.16,0.508
2016-09-05 00:17:00,2552E-3,5C000400,-0723,0822,12200,031.2,045.6,0.249,760.5,01.16,0.508
2016-09-05 00:18:00,2389E-3,5C000400,-0723,0823,12288,031.2,045.6,0.249,760.5,01.16,0.508
2016-09-05 00:19:00,2454E-3,5C000400,-0723,0823,12412,031.2,045.6,0.248,760.5,01.16,0.508
2016-09-05 00:20:00,2434E-3,5C000400,-0723,0823,12324,031.1,045.6,0.249,760.5,01.16,0.508
2016-09-05 00:21:00,2417E-3,5C000400,-0723,0823,12244,031.2,045.6,0.249,760.4,01.16,0.508
2016-09-05 00:22:00,2509E-3,5C000400,-0723,0822,12233,031.1,045.6,0.249,760.4,01.16,0.508
2016-09-05 00:23:00,2543E-3,5C000400,-0723,0823,12251,031.1,045.6,0.249,760.4,01.16,0.508
2016-09-05 00:24:00,2451E-3,5C000400,-0723,0823,12207,031.1,045.6,0.248,760.4,01.16,0.508
2016-09-05 00:25:00,2428E-3,5C000400,-0723,0823,12235,031.1,045.6,0.249,760.4,01.16,0.508
2016-09-05 00:26:00,2445E-3,5C000400,-0723,0823,12269,031.1,045.6,0.249,760.4,01.16,0.508
2016-09-05 00:27:00,2491E-3,5C000400,-0723,0823,12248,031.1,045.6,0.249,760.4,01.16,0.508
2016-09-05 00:28:00,2593E-3,5C000400,-0723,0823,12204,031.1,045.6,0.249,760.4,01.16,0.508
2016-09-05 00:29:00,2462E-3,5C000400,-0723,0822,12177,031.1,045.6,0.249,760.4,01.16,0.508
2016-09-05 00:30:00,2338E-3,5C000400,-0723,0823,12273,031.1,045.6,0.249,760.4,01.16,0.508
2016-09-05 00:31:00,2525E-3,5C000400,-0723,0822,12236,031.1,045.6,0.249,760.4,01.16,0.508
2016-09-05 00:32:00,2586E-3,5C000400,-0723,0822,12372,031.1,045.6,0.249,760.4,01.16,0.508
2016-09-05 00:33:00,2499E-3,5C000400,-0723,0823,12187,031.1,045.6,0.249,760.3,01.16,0.508
2016-09-05 00:34:00,2602E-3,5C000400,-0723,0823,12269,031.1,045.6,0.249,760.3,01.16,0.508
2016-09-05 00:35:00,2381E-3,5C000400,-0723,0823,12267,031.1,045.6,0.249,760.3,01.16,0.508
2016-09-05 00:36:00,2433E-3,5C000400,-0723,0823,12177,031.1,045.6,0.249,760.3,01.16,0.508
2016-09-05 00:37:00,2575E-3,5C000400,-0723,0822,12327,031.1,045.6,0.249,760.4,01.16,0.508
2016-09-05 00:38:00,2595E-3,5C000400,-0723,0822,12228,031.0,045.6,0.249,760.4,01.16,0.508
2016-09-05 00:39:00,2579E-3,5C000400,-0723,0823,12297,030.9,045.6,0.249,760.4,01.16,0.508
2016-09-05 00:40:00,2583E-3,5C000400,-0723,0822,12278,030.9,045.6,0.249,760.4,01.16,0.508
2016-09-05 00:41:00,2427E-3,5C000400,-0723,0823,12298,030.8,045.6,0.249,760.4,01.16,0.508
2016-09-05 00:42:00,2563E-3,5C000400,-0723,0822,12311,030.8,045.6,0.249,760.4,01.16,0.508
2016-09-05 00:43:00,2527E-3,5C000400,-0723,0823,12215,030.8,045.6,0.250,760.4,01.16,0.508
2016-09-05 00:44:00,2423E-3,5C000400,-0723,0822,12279,030.7,045.6,0.250,760.4,01.16,0.508
2016-09-05 00:45:00,2351E-3,5C000400,-0723,0822,12208,030.6,045.5,0.250,760.4,01.16,0.508
2016-09-05 00:46:00,2461E-3,5C000400,-0723,0822,12155,030.5,045.6,0.250,760.3,01.16,0.508
2016-09-05 00:47:00,2505E-3,5C000400,-0723,0822,12299,030.5,045.6,0.250,760.3,01.16,0.508
2016-09-05 00:48:00,2550E-3,5C000400,-0723,0822,12290,030.4,045.5,0.250,760.3,01.16,0.508
2016-09-05 00:49:00,2506E-3,5C000400,-0723,0822,12249,030.3,045.5,0.250,760.3,01.16,0.508
2016-09-05 00:50:00,2533E-3,5C000400,-0723,0823,12424,030.3,045.5,0.250,760.4,01.16,0.508
2016-09-05 00:51:00,2362E-3,5C000400,-0723,0822,12306,030.3,045.5,0.250,760.4,01.16,0.508
2016-09-05 00:52:00,2428E-3,5C000400,-0723,0823,12305,030.3,045.5,0.250,760.4,01.16,0.508
2016-09-05 00:53:00,2543E-3,5C000400,-0723,0823,12405,030.2,045.6,0.250,760.4,01.16,0.508
2016-09-05 00:54:00,2400E-3,5C000400,-0723,0822,12246,030.2,045.5,0.250,760.4,01.16,0.508
2016-09-05 00:55:00,2517E-3,5C000400,-0723,0823,12264,030.2,045.5,0.250,760.5,01.16,0.508
2016-09-05 00:56:00,2574E-3,5C000400,-0723,0823,12183,030.1,045.5,0.250,760.5,01.16,0.508
2016-09-05 00:57:00,2454E-3,5C000400,-0723,0823,12226,030.1,045.5,0.251,760.5,01.16,0.508
2016-09-05 00:58:00,2567E-3,5C000400,-0723,0822,12273,030.1,045.5,0.251,760.5,01.16,0.508
2016-09-05 00:59:00,2462E-3,5C000400,-0723,0822,12176,030.1,045.5,0.250,760.5,01.16,0.508
2016-09-05 01:00:00,2568E-3,5C000400,-0723,0822,12352,030.1,045.5,0.251,760.4,01.16,0.508
2016-09-05 01:01:00,2528E-3,5C000400,-0723,0822,12208,030.1,045.5,0.251,760.5,01.16,0.508
2016-09-05 01:02:00,2436E-3,5C000400,-0723,0823,12209,030.1,045.5,0.250,760.5,01.16,0.508
2016-09-05 01:03:00,2422E-3,5C000400,-0723,0823,12287,030.0,045.5,0.251,760.5,01.16,0.508
2016-09-05 01:04:00,2537E-3,5C000400,-0723,0823,12160,030.0,045.5,0.251,760.5,01.16,0.508
2016-09-05 01:05:00,2644E-3,5C000400,-0723,0822,12204,030.0,045.5,0.250,760.5,01.16,0.508
2016-09-05 01:06:00,2445E-3,5C000400,-0723,0822,12311,030.0,045.5,0.251,760.5,01.16,0.508
2016-09-05 01:07:00,2542E-3,5C000400,-0723,0822,12310,030.0,045.6,0.251,760.5,01.16,0.508
2016-09-05 01:08:00,2553E-3,5C000400,-0723,0822,12307,030.0,045.5,0.250,760.5,01.16,0.508
2016-09-05 01:09:00,2518E-3,5C000400,-0723,0822,12334,030.0,045.5,0.251,760.5,01.16,0.508
2016-09-05 01:10:00,2380E-3,5C000400,-0723,0822,12197,030.0,045.5,0.251,760.5,01.16,0.508
2016-09-05 01:11:00,2320E-3,5C000400,-0723,0822,12408,030.0,045.5,0.251,760.5,01.16,0.508
2016-09-05 01:12:00,2394E-3,5C000400,-0723,0822,12153,030.0,045.5,0.251,760.5,01.16,0.508
2016-09-05 01:13:00,2497E-3,5C000400,-0723,0822,12265,030.0,045.5,0.251,760.5,01.16,0.508
2016-09-05 01:14:00,2448E-3,5C000400,-0723,0823,12330,030.0,045.5,0.251,760.5,01.16,0.508
2016-09-05 01:15:00,2412E-3,5C000400,-0723,0822,12226,029.9,045.5,0.251,760.4,01.16,0.508
2016-09-05 01:16:00,2456E-3,5C000400,-0723,0823,12217,029.9,045.5,0.251,760.5,01.16,0.508
2016-09-05 01:17:00,2546E-3,5C000400,-0723,0823,12351,030.0,045.5,0.251,760.4,01.16,0.508
2016-09-05 01:18:00,2372E-3,5C000400,-0723,0823,12386,030.0,045.5,0.251,760.4,01.16,0.508
2016-09-05 01:19:00,2494E-3,5C000400,-0723,0822,12363,030.0,045.5,0.251,760.5,01.16,0.508
2016-09-05 01:20:00,2505E-3,5C000400,-0723,0823,12231,030.0,045.5,0.251,760.5,01.16,0.508
2016-09-05 01:21:00,2368E-3,5C000400,-0723,0823,12214,030.0,045.5,0.251,760.5,01.16,0.508
2016-09-05 01:22:00,2423E-3,5C000400,-0723,0822,12272,030.0,045.5,0.251,760.5,01.16,0.508
2016-09-05 01:23:00,2417E-3,5C000400,-0723,0822,12168,030.0,045.5,0.251,760.5,01.16,0.508
2016-09-05 01:24:00,2348E-3,5C000400,-0723,0823,12242,030.0,045.5,0.251,760.5,01.16,0.508
2016-09-05 01:25:00,2396E-3,5C000400,-0723,0822,12142,030.0,045.5,0.251,760.5,01.16,0.508
2016-09-05 01:26:00,2440E-3,5C000400,-0723,0822,12328,030.0,045.5,0.251,760.4,01.16,0.508
2016-09-05 01:27:00,2415E-3,5C000400,-0723,0822,12361,030.0,045.5,0.251,760.4,01.16,0.508
2016-09-05 01:28:00,2427E-3,5C000400,-0723,0822,12256,030.0,045.5,0.251,760.4,01.16,0.508
2016-09-05 01:29:00,2381E-3,5C000400,-0723,0822,12189,030.0,045.5,0.251,760.4,01.16,0.508
2016-09-05 01:30:00,2363E-3,5C000400,-0723,0822,12206,030.0,045.5,0.251,760.4,01.16,0.508
2016-09-05 01:31:00,2597E-3,5C000400,-0723,0823,12202,030.0,045.5,0.251,760.4,01.16,0.508
2016-09-05 01:32:00,2479E-3,5C000400,-0723,0822,12291,030.0,045.5,0.251,760.4,01.16,0.508
2016-09-05 01:33:00,2419E-3,5C000400,-0723,0823,12230,030.0,045.5,0.251,760.3,01.16,0.508
2016-09-05 01:34:00,2505E-3,5C000400,-0723,0822,12290,030.0,045.5,0.251,760.3,01.16,0.508
2016-09-05 01:35:00,2424E-3,5C000400,-0723,0823,12215,030.0,045.5,0.251,760.3,01.16,0.508
2016-09-05 01:36:00,2515E-3,5C000400,-0723,0822,12326,030.0,045.5,0.252,760.3,01.16,0.508
2016-09-05 01:37:00,2547E-3,5C000400,-0723,0822,12216,030.1,045.5,0.251,760.4,01.16,0.508
2016-09-05 01:38:00,2458E-3,5C000400,-0723,0823,12396,030.1,045.5,0.251,760.4,01.16,0.508
2016-09-05 01:39:00,2368E-3,5C000400,-0723,0822,12377,030.1,045.5,0.251,760.3,01.16,0.508
2016-09-05 01:40:00,2637E-3,5C000400,-0723,0823,12274,030.1,045.6,0.251,760.3,01.16,0.508
2016-09-05 01:41:00,2312E-3,5C000400,-0723,0822,12206,030.1,045.5,0.251,760.3,01.16,0.508
2016-09-05 01:42:00,2434E-3,5C000400,-0723,0822,12189,030.1,045.5,0.251,760.4,01.16,0.508
2016-09-05 01:43:00,2523E-3,5C000400,-0723,0822,12289,030.1,045.5,0.251,760.3,01.16,0.508
2016-09-05 01:44:00,2517E-3,5C000400,-0723,0822,12231,030.1,045.5,0.251,760.3,01.16,0.508
2016-09-05 01:45:00,2499E-3,5C000400,-0723,0822,12317,030.1,045.5,0.251,760.4,01.16,0.508
2016-09-05 01:46:00,2421E-3,5C000400,-0723,0822,12208,030.0,045.5,0.251,760.3,01.16,0.508
2016-09-05 01:47:00,2432E-3,5C000400,-0723,0822,12259,030.0,045.5,0.251,760.3,01.16,0.508
2016-09-05 01:48:00,2294E-3,5C000400,-0723,0822,12203,030.0,045.5,0.251,760.3,01.16,0.508
2016-09-05 01:49:00,2233E-3,5C000400,-0723,0823,12248,030.0,045.5,0.251,760.3,01.16,0.508
2016-09-05 01:50:00,2384E-3,5C000400,-0723,0823,12362,030.0,045.5,0.251,760.3,01.16,0.508
2016-09-05 01:51:00,2464E-3,5C000400,-0723,0822,12311,030.0,045.5,0.251,760.3,01.16,0.508
2016-09-05 01:52:00,2475E-3,5C000400,-0723,0823,12200,030.0,045.5,0.251,760.3,01.16,0.508
2016-09-05 01:53:00,2441E-3,5C000400,-0723,0822,12331,030.0,045.5,0.251,760.3,01.16,0.508
2016-09-05 01:54:00,2386E-3,5C000400,-0723,0823,12160,030.0,045.5,0.251,760.3,01.16,0.508
2016-09-05 01:55:00,2457E-3,5C000400,-0723,0822,12222,030.0,045.5,0.251,760.3,01.16,0.508
2016-09-05 01:56:00,2426E-3,5C000400,-0723,0822,12259,030.0,045.5,0.251,760.3,01.16,0.508
2016-09-05 01:57:00,2447E-3,5C000400,-0723,0822,12215,030.0,045.5,0.251,760.3,01.16,0.508
2016-09-05 01:58:00,2402E-3,5C000400,-0723,0823,12223,030.0,045.5,0.251,760.3,01.16,0.508
2016-09-05 01:59:00,2442E-3,5C000400,-0723,0823,12200,030.0,045.5,0.251,760.2,01.16,0.508
2016-09-05 02:00:00,2423E-3,5C000400,-0723,0822,12219,030.0,045.5,0.251,760.2,01.16,0.508
2016-09-05 02:01:00,2370E-3,5C000400,-0723,0822,12316,030.0,045.5,0.251,760.2,01.16,0.508
2016-09-05 02:02:00,2311E-3,5C000400,-0723,0822,12256,030.0,045.5,0.251,760.2,01.16,0.508
2016-09-05 02:03:00,2455E-3,5C000400,-0723,0822,12322,030.0,045.5,0.251,760.2,01.16,0.508
2016-09-05 02:04:00,2304E-3,5C000400,-0723,0823,12109,030.1,045.5,0.251,760.2,01.16,0.508
2016-09-05 02:05:00,2500E-3,5C000400,-0723,0822,12357,030.1,045.5,0.251,760.2,01.16,0.508
2016-09-05 02:06:00,2386E-3,5C000400,-0723,0822,12291,030.1,045.5,0.251,760.2,01.16,0.508
2016-09-05 02:07:00,2423E-3,5C000400,-0723,0823,12318,030.0,045.5,0.251,760.2,01.16,0.508
2016-09-05 02:08:00,2417E-3,5C000400,-0723,0822,12341,030.1,045.5,0.251,760.2,01.16,0.508
2016-09-05 02:09:00,2508E-3,5C000400,-0723,0822,12326,030.1,045.5,0.251,760.2,01.16,0.508
2016-09-05 02:10:00,2337E-3,5C000400,-0723,0822,12327,030.1,045.5,0.251,760.2,01.16,0.508
2016-09-05 02:11:00,2340E-3,5C000400,-0723,0822,12316,030.0,045.5,0.251,760.2,01.16,0.508
2016-09-05 02:12:00,2404E-3,5C000400,-0723,0822,12264,030.0,045.5,0.251,760.2,01.16,0.508
2016-09-05 02:13:00,2376E-3,5C000400,-0723,0823,12217,030.1,045.5,0.251,760.2,01.16,0.508
2016-09-05 02:14:00,2367E-3,5C000400,-0723,0823,12193,030.1,045.5,0.251,760.2,01.16,0.508
2016-09-05 02:15:00,2590E-3,5C000400,-0723,0823,12306,030.1,045.5,0.251,760.2,01.16,0.508
2016-09-05 02:16:00,2504E-3,5C000400,-0723,0823,12334,030.1,045.5,0.251,760.2,01.16,0.508
2016-09-05 02:17:00,2481E-3,5C000400,-0723,0823,12216,030.1,045.5,0.251,760.2,01.16,0.508
2016-09-05 02:18:00,2596E-3,5C000400,-0723,0822,12292,030.1,045.5,0.251,760.2,01.16,0.508
2016-09-05 02:19:00,2552E-3,5C000400,-0723,0821,12387,030.1,045.5,0.251,760.2,01.16,0.508
2016-09-05 02:20:00,2483E-3,5C000400,-0723,0822,12206,030.1,045.5,0.251,760.2,01.16,0.508
2016-09-05 02:21:00,2499E-3,5C000400,-0723,0823,12344,030.1,045.5,0.251,760.2,01.16,0.508
2016-09-05 02:22:00,2487E-3,5C000400,-0723,0822,12271,030.0,045.5,0.251,760.2,01.16,0.508
2016-09-05 02:23:00,2329E-3,5C000400,-0723,0822,12333,030.1,045.5,0.251,760.2,01.16,0.508
2016-09-05 02:24:00,2509E-3,5C000400,-0723,0823,12330,030.1,045.5,0.251,760.2,01.16,0.508
2016-09-05 02:25:00,2444E-3,5C000400,-0723,0822,12172,030.0,045.5,0.251,760.2,01.16,0.508
2016-09-05 02:26:00,2436E-3,5C000400,-0723,0822,12226,030.1,045.5,0.251,760.2,01.16,0.508
2016-09-05 02:27:00,2497E-3,5C000400,-0723,0822,12288,030.1,045.5,0.251,760.2,01.16,0.508
2016-09-05 02:28:00,2408E-3,5C000400,-0723,0822,12261,030.1,045.5,0.251,760.2,01.16,0.508
2016-09-05 02:29:00,2474E-3,5C000400,-0723,0822,12162,030.1,045.5,0.251,760.2,01.16,0.508
2016-09-05 02:30:00,2529E-3,5C000400,-0723,0822,12193,030.1,045.5,0.251,760.1,01.16,0.508
2016-09-05 02:31:00,2406E-3,5C000400,-0723,0823,12375,030.1,045.6,0.251,760.1,01.16,0.508
2016-09-05 02:32:00,2252E-3,5C000400,-0723,0822,12322,030.1,045.5,0.251,760.1,01.16,0.508
2016-09-05 02:33:00,2312E-3,5C000400,-0723,0823,12374,030.1,045.5,0.251,760.1,01.16,0.508
2016-09-05 02:34:00,2324E-3,5C000400,-0723,0822,12169,030.1,045.5,0.251,760.1,01.16,0.508
2016-09-05 02:35:00,2444E-3,5C000400,-0723,0822,12295,030.1,045.5,0.252,760.1,01.16,0.508
2016-09-05 02:36:00,2385E-3,5C000400,-0723,0823,12168,030.1,045.5,0.251,760.1,01.16,0.508
2016-09-05 02:37:00,2386E-3,5C000400,-0723,0822,12193,030.1,045.5,0.251,760.1,01.16,0.508
2016-09-05 02:38:00,2403E-3,5C000400,-0723,0823,12250,030.1,045.5,0.251,760.1,01.16,0.508
2016-09-05 02:39:00,2443E-3,5C000400,-0723,0822,12268,030.1,045.5,0.251,760.1,01.16,0.508
2016-09-05 02:40:00,2442E-3,5C000400,-0723,0822,12212,030.1,045.6,0.251,760.1,01.16,0.508
2016-09-05 02:41:00,2553E-3,5C000400,-0723,0822,12343,030.1,045.5,0.251,760.1,01.16,0.508
2016-09-05 02:42:00,2488E-3,5C000400,-0723,0822,12231,030.1,045.5,0.251,760.1,01.16,0.508
2016-09-05 02:43:00,2429E-3,5C000400,-0723,0822,12171,030.1,045.5,0.251,760.1,01.16,0.508
2016-09-05 02:44:00,2399E-3,5C000400,-0723,0822,12296,030.1,045.5,0.251,760.1,01.16,0.508
2016-09-05 02:45:00,2519E-3,5C000400,-0723,0822,12192,030.1,045.5,0.251,760.1,01.16,0.508
2016-09-05 02:46:00,2561E-3,5C000400,-0723,0822,12233,030.1,045.5,0.251,760.0,01.16,0.508
2016-09-05 02:47:00,2506E-3,5C000400,-0723,0822,12230,030.1,045.5,0.251,760.1,01.16,0.508
2016-09-05 02:48:00,2420E-3,5C000400,-0723,0822,12268,030.1,045.5,0.251,760.1,01.16,0.508
2016-09-05 02:49:00,2374E-3,5C000400,-0723,0822,12237,030.1,045.5,0.251,760.0,01.16,0.508
2016-09-05 02:50:00,2521E-3,5C000400,-0723,0823,12180,030.2,045.5,0.251,760.0,01.16,0.508
2016-09-05 02:51:00,2476E-3,5C000400,-0723,0822,12365,030.1,045.5,0.251,760.0,01.16,0.508
2016-09-05 02:52:00,2373E-3,5C000400,-0723,0822,12219,030.1,045.5,0.251,760.0,01.16,0.508
2016-09-05 02:53:00,2552E-3,5C000400,-0723,0823,12239,030.1,045.5,0.251,760.0,01.16,0.508
2016-09-05 02:54:00,2414E-3,5C000400,-0723,0823,12285,030.1,045.5,0.251,760.0,01.16,0.508
2016-09-05 02:55:00,2420E-3,5C000400,-0723,0823,12237,030.1,045.5,0.251,760.0,01.16,0.508
2016-09-05 02:56:00,2381E-3,5C000400,-0723,0822,12344,030.1,045.5,0.251,760.0,01.16,0.508
2016-09-05 02:57:00,2429E-3,5C000400,-0723,0822,12265,030.0,045.5,0.251,760.0,01.16,0.508
2016-09-05 02:58:00,2458E-3,5C000400,-0723,0823,12190,030.1,045.5,0.251,760.0,01.16,0.508
2016-09-05 02:59:00,2476E-3,5C000400,-0723,0823,12394,030.1,045.5,0.251,760.0,01.16,0.508
2016-09-05 03:00:00,2409E-3,5C000400,-0723,0823,12203,030.1,045.5,0.251,760.0,01.16,0.508
2016-09-05 03:01:00,2360E-3,5C000400,-0723,0823,12329,030.1,045.5,0.251,760.0,01.16,0.508
2016-09-05 03:02:00,2459E-3,5C000400,-0723,0822,12242,030.1,045.5,0.251,760.0,01.16,0.508
2016-09-05 03:03:00,2390E-3,5C000400,-0723,0823,12264,030.1,045.5,0.251,760.0,01.16,0.508
2016-09-05 03:04:00,2468E-3,5C000400,-0723,0823,12267,030.1,045.5,0.251,760.0,01.16,0.508
2016-09-05 03:05:00,2455E-3,5C000400,-0723,0823,12261,030.1,045.5,0.251,760.0,01.16,0.508
2016-09-05 03:06:00,2500E-3,5C000400,-0723,0822,12270,030.1,045.5,0.251,760.0,01.16,0.508
2016-09-05 03:07:00,2420E-3,5C000400,-0723,0823,12247,030.1,045.5,0.251,760.0,01.16,0.508
2016-09-05 03:08:00,2520E-3,5C000400,-0723,0822,12239,030.1,045.5,0.251,760.0,01.16,0.508
2016-09-05 03:09:00,2475E-3,5C000400,-0723,0822,12304,030.1,045.5,0.251,760.0,01.16,0.508
2016-09-05 03:10:00,2521E-3,5C000400,-0723,0822,12198,030.1,045.5,0.251,759.9,01.16,0.508
2016-09-05 03:11:00,2556E-3,5C000400,-0723,0823,12295,030.1,045.5,0.251,759.9,01.16,0.508
2016-09-05 03:12:00,2301E-3,5C000400,-0723,0822,12104,030.1,045.5,0.251,760.0,01.16,0.508
2016-09-05 03:13:00,2486E-3,5C000400,-0723,0823,12410,030.1,045.5,0.251,760.0,01.16,0.508
2016-09-05 03:14:00,2443E-3,5C000400,-0723,0822,12190,030.1,045.5,0.251,760.0,01.16,0.508
2016-09-05 03:15:00,2530E-3,5C000400,-0723,0823,12144,030.1,045.5,0.251,760.0,01.16,0.508
2016-09-05 03:16:00,2319E-3,5C000400,-0723,0824,12162,030.1,045.5,0.251,760.0,01.16,0.508
2016-09-05 03:17:00,2610E-3,5C000400,-0723,0823,12217,030.1,045.5,0.251,759.9,01.16,0.508
2016-09-05 03:18:00,2324E-3,5C000400,-0723,0823,12303,030.1,045.5,0.251,760.0,01.16,0.508
2016-09-05 03:19:00,2378E-3,5C000400,-0723,0822,12210,030.1,045.5,0.251,760.0,01.16,0.508
2016-09-05 03:20:00,2465E-3,5C000400,-0723,0822,12315,030.1,045.5,0.251,759.9,01.16,0.508
2016-09-05 03:21:00,2436E-3,5C000400,-0723,0822,12217,030.1,045.5,0.251,759.9,01.16,0.508
2016-09-05 03:22:00,2522E-3,5C000400,-0723,0823,12328,030.1,045.5,0.251,759.9,01.16,0.508
2016-09-05 03:23:00,2463E-3,5C000400,-0723,0823,12346,030.1,045.5,0.251,759.9,01.16,0.508
2016-09-05 03:24:00,2429E-3,5C000400,-0723,0822,12173,030.1,045.5,0.251,759.9,01.16,0.508
2016-09-05 03:25:00,2511E-3,5C000400,-0723,0822,12267,030.1,045.5,0.251,759.9,01.16,0.508
2016-09-05 03:26:00,2396E-3,5C000400,-0723,0823,12281,030.1,045.5,0.251,759.9,01.16,0.508
2016-09-05 03:27:00,2400E-3,5C000400,-0723,0823,12300,030.1,045.5,0.251,759.9,01.16,0.508
2016-09-05 03:28:00,2457E-3,5C000400,-0723,0822,12201,030.1,045.5,0.251,759.8,01.16,0.508
2016-09-05 03:29:00,2492E-3,5C000400,-0723,0823,12278,030.1,045.5,0.251,759.8,01.16,0.508
2016-09-05 03:30:00,2427E-3,5C000400,-0723,0822,12213,030.1,045.5,0.251,759.8,01.16,0.508
2016-09-05 03:31:00,2408E-3,5C000400,-0723,0822,12151,030.1,045.5,0.251,759.8,01.16,0.508
2016-09-05 03:32:00,2474E-3,5C000400,-0723,0823,12289,030.1,045.5,0.251,759.8,01.16,0.508
2016-09-05 03:33:00,2377E-3,5C000400,-0723,0822,12158,030.1,045.5,0.251,759.8,01.16,0.508
2016-09-05 03:34:00,2429E-3,5C000400,-0723,0823,12287,030.1,045.5,0.251,759.8,01.16,0.508
2016-09-05 03:35:00,2561E-3,5C000400,-0723,0822,12143,030.1,045.5,0.251,759.8,01.16,0.508
2016-09-05 03:36:00,2476E-3,5C000400,-0723,0822,12189,030.1,045.5,0.251,759.8,01.16,0.508
2016-09-05 03:37:00,2398E-3,5C000400,-0723,0822,12226,030.1,045.5,0.251,759.8,01.16,0.508
2016-09-05 03:38:00,2450E-3,5C000400,-0723,0822,12207,030.1,045.5,0.251,759.8,01.16,0.508
2016-09-05 03:39:00,2407E-3,5C000400,-0723,0822,12115,030.1,045.5,0.251,759.8,01.16,0.508
2016-09-05 03:40:00,2242E-3,5C000400,-0723,0822,12242,030.1,045.5,0.251,759.8,01.16,0.508
2016-09-05 03:41:00,2446E-3,5C000400,-0723,0822,12201,030.1,045.6,0.251,759.8,01.16,0.508
2016-09-05 03:42:00,2352E-3,5C000400,-0723,0823,12355,030.1,045.5,0.251,759.8,01.16,0.508
2016-09-05 03:43:00,2524E-3,5C000400,-0723,0823,12366,030.1,045.5,0.251,759.8,01.16,0.508
2016-09-05 03:44:00,2363E-3,5C000400,-0723,0822,12128,030.1,045.5,0.251,759.8,01.16,0.508
2016-09-05 03:45:00,2418E-3,5C000400,-0723,0822,12204,030.1,045.5,0.251,759.8,01.16,0.508
2016-09-05 03:46:00,2540E-3,5C000400,-0723,0822,12442,030.1,045.5,0.251,759.8,01.16,0.508
2016-09-05 03:47:00,2450E-3,5C000400,-0723,0823,12099,030.1,045.5,0.251,759.8,01.16,0.508
2016-09-05 03:48:00,2486E-3,5C000400,-0723,0822,12284,030.1,045.5,0.251,759.8,01.16,0.508
2016-09-05 03:49:00,2451E-3,5C000400,-0723,0822,12278,030.1,045.5,0.251,759.8,01.16,0.508
2016-09-05 03:50:00,2527E-3,5C000400,-0723,0822,12252,030.1,045.5,0.251,759.8,01.16,0.508
2016-09-05 03:51:00,2360E-3,5C000400,-0723,0822,12342,030.1,045.5,0.251,759.8,01.16,0.508
2016-09-05 03:52:00,2654E-3,5C000400,-0723,0822,12265,030.1,045.5,0.251,759.8,01.16,0.508
2016-09-05 03:53:00,2429E-3,5C000400,-0723,0822,12230,030.1,045.5,0.251,759.8,01.16,0.508
2016-09-05 03:54:00,2463E-3,5C000400,-0723,0822,12197,030.1,045.5,0.251,759.8,01.16,0.508
2016-09-05 03:55:00,2353E-3,5C000400,-0723,0822,12257,030.1,045.5,0.251,759.8,01.16,0.508
2016-09-05 03:56:00,2535E-3,5C000400,-0723,0823,12287,030.1,045.5,0.251,759.8,01.16,0.508
2016-09-05 03:57:00,2346E-3,5C000400,-0723,0822,12196,030.1,045.5,0.251,759.8,01.16,0.508
2016-09-05 03:58:00,2477E-3,5C000400,-0723,0822,12319,030.1,045.5,0.251,759.7,01.16,0.508
2016-09-05 03:59:00,2322E-3,5C000400,-0723,0823,12361,030.1,045.5,0.251,759.8,01.16,0.508
2016-09-05 04:00:00,2502E-3,5C000400,-0723,0822,12187,030.1,045.5,0.251,759.7,01.16,0.508
2016-09-05 04:01:00,2402E-3,5C000400,-0723,0822,12236,030.1,045.5,0.251,759.7,01.16,0.508
2016-09-05 04:02:00,2493E-3,5C000400,-0723,0822,12380,030.1,045.5,0.251,759.7,01.16,0.508
2016-09-05 04:03:00,2424E-3,5C000400,-0723,0822,12289,030.1,045.5,0.251,759.7,01.16,0.508
2016-09-05 04:04:00,2493E-3,5C000400,-0723,0822,12434,030.1,045.5,0.251,759.7,01.16,0.508
2016-09-05 04:05:00,2324E-3,5C000400,-0723,0822,12264,030.0,045.5,0.251,759.7,01.16,0.508
2016-09-05 04:06:00,2503E-3,5C000400,-0723,0823,12255,030.1,045.5,0.251,759.7,01.16,0.508
2016-09-05 04:07:00,2312E-3,5C000400,-0723,0823,12303,030.1,045.5,0.251,759.7,01.16,0.508
2016-09-05 04:08:00,2462E-3,5C000400,-0723,0822,12057,030.1,045.5,0.251,759.7,01.16,0.508
2016-09-05 04:09:00,2338E-3,5C000400,-0723,0823,12326,030.1,045.5,0.251,759.7,01.16,0.508
2016-09-05 04:10:00,2554E-3,5C000400,-0723,0822,12365,030.1,045.5,0.251,759.7,01.16,0.508
2016-09-05 04:11:00,2442E-3,5C000400,-0723,0823,12315,030.1,045.5,0.251,759.7,01.16,0.508
2016-09-05 04:12:00,2529E-3,5C000400,-0723,0823,12218,030.1,045.5,0.251,759.7,01.16,0.508
2016-09-05 04:13:00,2396E-3,5C000400,-0723,0823,12251,030.1,045.5,0.251,759.6,01.16,0.508
2016-09-05 04:14:00,2471E-3,5C000400,-0723,0822,12172,030.1,045.6,0.251,759.6,01.16,0.508
2016-09-05 04:15:00,2438E-3,5C000400,-0723,0823,12284,030.1,045.5,0.251,759.6,01.16,0.508
2016-09-05 04:16:00,2237E-3,5C000400,-0723,0822,12367,030.1,045.5,0.251,759.6,01.16,0.508
2016-09-05 04:17:00,2623E-3,5C000400,-0723,0822,12143,030.1,045.5,0.251,759.6,01.16,0.508
2016-09-05 04:18:00,2461E-3,5C000400,-0723,0823,12368,030.1,045.5,0.251,759.6,01.16,0.508
2016-09-05 04:19:00,2629E-3,5C000400,-0723,0823,12356,030.1,045.5,0.251,759.6,01.16,0.508
2016-09-05 04:20:00,2329E-3,5C000400,-0723,0822,12225,030.1,045.5,0.251,759.6,01.16,0.508